Weather History for Willimantic, CT

Change the Weather History Date:

Sunday, February 10, 2013

  Actual Average Record
Temperature  
Mean Temperature 16 °F -  
Max Temperature 36 °F 34 °F 57 °F (1990)
Min Temperature -4 °F 8 °F -10 °F (1975)
Degree Days  
Heating Degree Days 49    
Moisture  
Dew Point -1 °F    
Average Humidity 50    
Maximum Humidity 80    
Minimum Humidity 19    
Precipitation  
Precipitation 0.00 in - - ()
Sea Level Pressure  
Sea Level Pressure 30.38 in    
Wind  
Wind Speed 3 mph (NNW)    
Max Wind Speed 10 mph    
Max Gust Speed -    
Visibility 10 miles    
Events      
Averages and records for this station are not official NWS values.
T = Trace of Precipitation, MM = Missing Value Source: NWS Daily Summary

Daily Weather History Graph

Daily Weather History Graph

Search for Another Location

Airport:

Trip Planner

Search our weather history database for the weather conditions in past years. The results will help you decide how hot, cold, wet, or windy it might be!

Date:

Astronomy

Feb. 10, 2013 Rise Set
Actual Time 6:50 AM EST 5:16 PM EST
Civil Twilight 6:21 AM EST 5:44 PM EST
Nautical Twilight 5:48 AM EST 6:17 PM EST
Astronomical Twilight 5:16 AM EST 6:50 PM EST
Moon 6:37 AM EST (2/10) 6:05 PM EST (2/10)
Length of Visible Light 11h 23m
Length of Day
10h 25m
Waxing Crescent, 0% of the Moon is Illuminated
Feb 10
Waxing Crescent
Feb 17
First Quarter
Feb 25
Full
Mar 4
Last Quarter
Mar 11
New

Hourly Weather History & Observations

Time (EST) Temp. Windchill Dew Point Humidity Pressure Visibility Wind Dir Wind Speed Gust Speed Precip Events Conditions
12:52 AM 16.0 °F 5.3 °F -2.9 °F 43% 30.27 in 10.0 mi North 8.1 mph - N/A   Clear
1:52 AM 15.1 °F 9.4 °F -2.9 °F 45% 30.29 in 10.0 mi Variable 3.5 mph - N/A   Clear
2:52 AM 9.0 °F - -5.1 °F 53% 30.30 in 10.0 mi Calm Calm - N/A   Clear
3:52 AM 5.0 °F - -4.0 °F 66% 30.32 in 10.0 mi Calm Calm - N/A   Clear
4:52 AM -0.0 °F - -8.0 °F 69% 30.34 in 10.0 mi Calm Calm - N/A   Clear
5:52 AM -2.9 °F -11.2 °F -8.0 °F 79% 30.36 in 10.0 mi NE 3.5 mph - N/A   Clear
6:52 AM -4.0 °F -12.4 °F -9.9 °F 76% 30.39 in 10.0 mi NE 3.5 mph - N/A   Clear
7:52 AM -4.0 °F - -9.0 °F 79% 30.43 in 10.0 mi Calm Calm - N/A   Clear
8:52 AM 3.0 °F - -2.0 °F 80% 30.43 in 9.0 mi Calm Calm - N/A   Clear
9:52 AM 24.1 °F 16.0 °F -4.0 °F 29% 30.43 in 10.0 mi NNW 6.9 mph - N/A   Clear
10:52 AM 28.9 °F 19.8 °F -4.0 °F 24% 30.44 in 10.0 mi NW 10.4 mph - N/A   Clear
11:42 AM 30.2 °F 23.4 °F -0.4 °F 27% 30.41 in 2.0 mi WNW 6.9 mph - N/A   Haze
11:50 AM 32.0 °F 24.8 °F -2.2 °F 23% 30.41 in 9.0 mi NNW 8.1 mph - N/A   Clear
11:52 AM 32.0 °F 26.4 °F -2.9 °F 22% 30.42 in 10.0 mi NNW 5.8 mph - N/A   Clear
12:52 PM 34.0 °F - -2.9 °F 21% 30.39 in 10.0 mi Calm Calm - N/A   Clear
1:52 PM 35.1 °F 31.0 °F -2.0 °F 21% 30.38 in 10.0 mi Variable 4.6 mph - N/A   Clear
2:52 PM 35.1 °F 31.0 °F 1.0 °F 24% 30.37 in 10.0 mi SW 4.6 mph - N/A   Clear
3:52 PM 36.0 °F - -2.9 °F 19% 30.38 in 10.0 mi Calm Calm - N/A   Clear
4:52 PM 33.1 °F - 3.0 °F 28% 30.37 in 10.0 mi Calm Calm - N/A   Clear
5:52 PM 28.0 °F - 5.0 °F 38% 30.38 in 8.0 mi Calm Calm - N/A   Clear
6:52 PM 18.0 °F - 7.0 °F 62% 30.40 in 10.0 mi Calm Calm - N/A   Clear
7:52 PM 19.9 °F - 9.0 °F 62% 30.40 in 10.0 mi Calm Calm - N/A   Clear
8:52 PM 10.0 °F - 3.0 °F 73% 30.40 in 10.0 mi Calm Calm - N/A   Clear
9:52 PM 12.9 °F 6.9 °F 7.0 °F 77% 30.39 in 9.0 mi NE 3.5 mph - N/A   Clear
10:52 PM 8.1 °F - 3.0 °F 80% 30.38 in 10.0 mi Calm Calm - N/A   Clear
11:52 PM 12.0 °F - 6.1 °F 77% 30.37 in 10.0 mi Calm Calm - N/A   Clear